Вернуться в каталог

ION SCV-014

АктивенСвязьSSO
NORAD 62630·PAYLOAD·🇮🇹 Italy

Запущен Jan 14, 2025 с Vandenberg Space Force Base

Loading…

Ближайшие Пролёты (ближайшие 24 часа)

TLE

СвежийSource: Space-Track

Эпоха: Sep 14, 2026, 04:23 UTC

1 62630U 25009X   26257.18325309  .00000749  00000-0  56257-4 0  9995
2 62630  97.4781 327.6509 0004600 175.2569 184.8702 15.05457877 91371

Отслеживайте ION SCV-014 в реальном времени с AllMySat

Download on the App Store